Regional Weather Roundup
Issued by NWS

Home | Current Version | Previous Version | Graphics & Text | Print | Product List | Glossary On
Versions: 1 2 3 4 5 6 7 8 9 10 11 12 13 14 15 16 17 18 19 20 21 22 23 24 25 26 27 28 29 30 31 32 33 34 35 36 37 38 39 40 41 42 43 44 45 46 47 48 49 50
000
ASUS43 KMPX 280610
RWRMN
WEATHER ROUNDUP FOR MINNESOTA
NATIONAL WEATHER SERVICE TWIN CITIES/CHANHASSEN MN
100 AM CDT SUN MAY 28 2017


NOTE: "FAIR" INDICATES FEW OR NO CLOUDS BELOW 12,000 FEET WITH NO
SIGNIFICANT WEATHER AND/OR OBSTRUCTIONS TO VISIBILITY. N/A MEANS
CURRENT SKY AND/OR WEATHER CONDITIONS ARE NOT AVAILABLE.

MNZ060>063-068>070-280700-
   Twin Cities Metro

CITY           SKY/WX    TMP DP  RH WIND       PRES   REMARKS
TWIN CITIES    CLOUDY    65  46  50 SW9       29.79F
6HR MIN TEMP:  64; 6HR MAX TEMP:  70;

ST PAUL        CLOUDY    61  51  70 E5        29.79F
CRYSTAL        CLOUDY    62  46  55 S6        29.77F
BLAINE         CLOUDY    64  48  55 SW6       29.78F
LAKEVILLE      CLOUDY    61  46  59 SW3       29.80F
EDEN PRAIRIE   CLOUDY    60  49  66 SW6       29.79F
6HR MIN TEMP:  60; 6HR MAX TEMP:  71; 6HR PCP: TRACE;

SOUTH ST PAUL  CLOUDY    63  46  53 SW5       29.79F
LAKE ELMO      DRIZZLE   59  50  72 S5        29.80F
$$
MNZ001>005-007-008-013>017-022>024-027-028-280700-
   Northwest Minnesota

CITY           SKY/WX    TMP DP  RH WIND       PRES   REMARKS
BEMIDJI        CLOUDY    54  48  82 W12       29.71R
HALLOCK        CLOUDY    54  48  82 NW12      29.71S
ROSEAU         CLOUDY    57  48  72 NW7       29.68S
WARROAD        MOCLDY    54  48  82 SW3       29.67F
THIEF RVR FALL LGT RAIN  51  49  92 N21       29.71F
CROOKSTON      CLOUDY    50  48  93 NW12      29.74R
FOSSTON          N/A     50  46  87 W8        29.71S
DETROIT LAKES  CLOUDY    52  48  87 W3        29.77S
MOORHEAD       CLEAR     54  45  71 W10       29.77F
PARK RAPIDS    LGT RAIN  55  48  77 W12       29.74R
MAHNOMEN       CLOUDY    51  48  89 SW6       29.74R
$$
MNZ006-009>011-018-025>026-280700-
   North Central Minnesota

CITY           SKY/WX    TMP DP  RH WIND       PRES   REMARKS
BAUDETTE       CLOUDY    54  45  71 CALM      29.68F
FLAG ISLAND    CLOUDY    59  46  63 NW9       29.64F
INTL FALLS     MOCLDY    56  44  64 S3        29.68F
6HR MIN TEMP:  50; 6HR MAX TEMP:  68;

WASKISH        MOCLDY    55  46  71 SW5       29.69S
BIG FORK       CLOUDY    57  46  67 S5        29.70F
LONGVILLE      MOCLDY    52  52 100 SW3       29.71F
GRAND RAPIDS   MOCLDY    54  46  74 S3        29.74F
CRANE LAKE     CLOUDY    50  48  93 CALM      29.72F
ORR            CLOUDY    55  43  62 S5        29.69S
COOK           CLOUDY    54  45  71 CALM      29.72F
WALKER         LGT RAIN  53  48  83 NE3       29.69F
$$
MNZ012-019>021-037-280700-
   Northeast Minnesota

CITY           SKY/WX    TMP DP  RH WIND       PRES   REMARKS
DULUTH         MOCLDY    61  44  53 SW10      29.74F
6HR MIN TEMP:  60; 6HR MAX TEMP:  71;

ELY            CLEAR     50  43  76 CALM      29.73F
HIBBING        CLOUDY    47  43  86 CALM      29.72F
EVELETH        PTCLDY    48  42  80 CALM      29.74F
DULUTH HARBOR  PTCLDY    59  50  72 SW6       29.74F
TWO HARBORS    PTCLDY    61  46  59 CALM      29.73S
SILVER BAY     MOCLDY    52  46  82 CALM      29.73S
GRAND MARAIS     N/A     46  43  89 CALM      29.73F
G MARAIS ARPRT PTCLDY    52  37  58 CALM      29.76S
$$
MNZ029>031-032-039>041-046>048-054>057-064-280700-
   West Central Minnesota

CITY           SKY/WX    TMP DP  RH WIND       PRES   REMARKS
FERGUS FALLS   CLOUDY    54  48  82 CALM      29.75S
WHEATON        PTCLDY    55  46  71 W5        29.80S
MORRIS         CLOUDY    55  52  88 CALM      29.77F
ALEXANDRIA     PTCLDY    59  46  62 NW17G26   29.79R
ELBOW LAKE     MOCLDY    55  49  81 N6        29.77F
WADENA         RAIN      55  46  71 W9G18     29.75R
GLENWOOD       PTCLDY    61  46  59 W14G24    29.80S
APPLETON       DRIZZLE   59  52  77 NW5       29.79F
BENSON         LGT RAIN  57  52  82 CALM      29.81R
ORTONVILLE     CLOUDY    59  50  72 CALM      29.78F
MADISON        CLOUDY    64  48  55 SW14G21   29.79S
WILLMAR        FAIR      61  48  63 SW10      29.80F
$$
MNZ033>034-036-042>043-049>051-058-059-280700-
   Central Minnesota

CITY           SKY/WX    TMP DP  RH WIND       PRES   REMARKS
ST CLOUD       PTCLDY    53  47  79 S5        29.76F
6HR MIN TEMP:  53; 6HR MAX TEMP:  69;

SAUK CENTRE    FAIR      58  46  63 SW16      29.77S
PAYNESVILLE    CLEAR     60  45  56 SW10G16   29.79R
AITKIN         PTCLDY    52  45  76 CALM      29.73F
PINE RIVER     CLOUDY    57  46  67 S5        29.76S
BRAINERD       CLEAR     53  45  74 SE6       29.73F
STAPLES        PTCLDY    61  43  51 W12G18    29.74R
LONG PRAIRIE   FAIR      57  45  62 S13       29.76S
LITTLE FALLS   CLEAR     57  43  58 S5        29.75F
LITCHFIELD     PTCLDY    59  48  67 SW5       29.79F
BUFFALO        CLOUDY    60  46  59 SW5       29.79F
MAPLE LAKE     CLOUDY    59  49  68 CALM      29.79F
HUTCHINSON     CLOUDY    61  49  64 SW8       29.81F
$$
MNZ037-044-045-052-053-280700-
   East Central Minnesota

CITY           SKY/WX    TMP DP  RH WIND       PRES   REMARKS
PRINCETON      CLOUDY    57  46  67 S5        29.77F
MORA           PTCLDY    54  45  71 CALM      29.77F
CAMBRIDGE      PTCLDY    61  48  63 S5        29.75F
RUSH CITY      PTCLDY    58  49  72 S5        29.77F
MOOSE LAKE     PTCLDY    46  45  93 CALM      29.74S
HINCKLEY       FAIR      50  50 100 CALM      29.76F
CLOQUET        PTCLDY    57  41  54 SW6       29.75F
MCGREGOR       PTCLDY    55  45  67 S5        29.75F
$$
MNZ071>073-080-081-089-090-097-098-280700-
   Southwest Minnesota

CITY           SKY/WX    TMP DP  RH WIND       PRES   REMARKS
MONTEVIDEO     CLOUDY    61  48  63 W8        29.79F
CANBY          PTCLDY    62  48  60 SW10      29.82S
MARSHALL       CLEAR     59  48  67 SW20      29.81F
REDWOOD FALLS  CLEAR     59  47  64 SW13      29.80F
OLIVIA         CLEAR     55  46  71 SW8       29.80F
PIPESTONE      CLEAR     54  46  76 W7        29.86F
WINDOM         PTCLDY    59  52  77 SW10      29.85F
WORTHINGTON    CLEAR     56  51  84 W13       29.88S
JACKSON        PTCLDY    55  52  88 SW8       29.87S
TRACY          CLEAR     58  49  71 SW12      29.84S
SLAYTON        CLEAR     55  49  82 SW14      29.87S
$$
MNZ065>067-074>077-082>085-091>093-280700-
   South Central Minnesota

CITY           SKY/WX    TMP DP  RH WIND       PRES   REMARKS
MANKATO        CLOUDY    61  49  64 SW9       29.83F
NEW ULM        PTCLDY    59  50  72 SW8       29.83R
ST JAMES       MOCLDY    59  52  77 SW8       29.85S
FAIRMONT       CLEAR     59  51  75 SW9       29.86S
GLENCOE        CLOUDY    62  52  68 SW3       29.80S
FARIBAULT      CLOUDY    61  48  63 S5        29.83F
OWATONNA       MOCLDY    57  48  72 S8        29.83S
WASECA         MOCLDY    57  46  67 S7        29.84F
ALBERT LEA     CLOUDY    61  54  77 CALM      29.85S
$$
MNZ078>079-086>088-094>096-280700-
   Southeast Minnesota

CITY           SKY/WX    TMP DP  RH WIND       PRES   REMARKS
ROCHESTER      CLOUDY    55  51  86 SW7       29.85F
6HR MIN TEMP:  54; 6HR MAX TEMP:  65;

RED WING       MOCLDY    55  50  82 CALM      29.80F
STANTON        CLOUDY    60  47  61 S3        29.80F
DODGE CENTER   CLOUDY    57  48  72 SW8       29.84S
WINONA         CLOUDY    55  55 100 CALM      29.82F
AUSTIN         PTCLDY    54  50  87 CALM      29.85R
PRESTON        PTCLDY    55  48  79 SW3       29.84F
$$
ABBREVIATIONS USED IN REMARKS
   TC - TEMPERATURES IN CELSIUS
  WCI - WIND CHILL INDEX
   HX - HEAT INDEX
  VSB - VISIBILITY
$$




USA.gov is the U.S. government's official web portal to all federal, state and local government web resources and services.